Temp
60 60 61 61 61 61 61 61 61 61 61 61 61 61 61 61 62 63 52 57 60 63 64 66 67 64 65 58 59 58 44 43 47 49 50 57 52 56 58 52 55 59 57 62 65
59 59 60 60 60 61 61 61 61 61 60 60 60 60 61 61 61 56 61 63 63 63 63 59 57 60 54 55 53 49 42 45 51 51 48 51 51 51 49 51 52 56 61 63 62
59 59 59 59 60 60 60 60 60 60 60 60 60 60 60 60 58 55 63 63 63 65 65 62 63 59 52 54 50 48 43 50 52 52 51 49 48 53 49 45 51 51 55 58 57
59 58 59 59 59 60 60 60 60 60 60 60 60 60 60 60 44 59 63 63 64 66 64 61 60 53 49 46 51 43 51 51 51 52 49 46 50 47 49 50 56 55 57 56 54
58 58 58 58 59 60 60 60 60 60 60 60 60 60 59 55 51 65 63 63 65 63 58 56 52 51 46 48 48 44 48 51 51 50 49 51 46 46 48 53 55 56 56 54 54
58 58 58 58 58 59 59 60 60 60 60 60 61 60 56 47 62 65 63 61 59 59 56 55 51 52 49 47 45 46 47 47 50 49 49 46 45 46 48 53 53 55 53 54 54
58 57 57 58 58 59 59 59 60 59 60 60 61 62 55 50 64 64 63 58 59 57 54 55 55 52 50 46 48 47 41 46 49 48 46 47 40 42 49 54 51 53 55 53 51
57 57 57 58 58 58 59 59 59 59 60 60 60 60 49 61 62 62 62 60 61 60 57 57 56 52 48 49 47 42 40 33 47 48 46 43 31 47 51 49 49 50 51 50 49
57 57 57 58 58 58 58 58 58 60 60 61 58 55 48 60 56 60 61 53 56 58 57 59 54 47 48 39 36 35 23 30 38 48 46 41 34 45 52 51 46 46 46 46 47
57 57 57 57 58 58 58 58 59 59 60 64 62 50 54 50 55 57 61 57 52 52 51 50 47 39 39 33 21 25 26 32 33 42 44 39 38 45 49 45 42 41 42 44 45
58 57 57 57 58 58 57 56 53 50 53 45 47 48 52 55 57 56 58 54 53 50 38 42 35 31 37 37 38 37 32 29 36 44 38 37 38 41 45 41 39 38 41 42 44
58 58 57 57 58 58 58 51 46 47 40 51 51 51 53 53 47 53 57 47 36 32 40 34 31 42 43 42 38 34 29 27 36 43 37 34 34 41 44 41 39 38 39 41 43
58 57 57 57 57 56 51 48 53 53 39 47 50 49 49 50 47 47 51 47 32 30 30 29 40 44 40 35 32 32 28 27 29 35 35 33 28 36 41 42 42 42 42 43 42
58 57 56 57 55 54 48 53 54 52 32 39 44 46 49 49 42 52 52 46 41 28 33 32 43 39 34 32 35 22 39 35 30 21 15 32 13 30 36 37 40 40 39 40 39
57 56 56 57 53 49 48 54 54 47 27 39 43 52 50 44 44 46 52 47 39 32 31 31 33 32 29 36 38 30 38 33 31 18 19 23 14 27 37 33 34 36 39 39 38
56 55 55 55 51 48 51 49 48 34 27 31 42 39 37 43 45 47 46 48 46 37 35 32 40 35 37 40 40 40 31 31 28 19 14 16 15 20 25 28 32 36 36 37 36
55 54 53 52 47 50 49 46 34 30 34 31 33 38 33 33 38 40 39 38 31 24 25 32 31 37 39 32 37 31 21 13 11 11 13 16 17 22 28 33 33 32 34 34 34
52 51 47 47 48 48 45 35 31 34 31 38 37 37 32 34 32 33 34 31 36 31 25 18 19 26 37 31 24 26 19 11 1 9 15 17 12 24 33 35 34 34 34 33 31
51 46 44 44 47 47 39 32 33 33 39 35 36 30 30 32 30 29 29 32 34 30 21 20 22 34 35 36 32 25 19 26 11 12 12 15 23 29 30 24 30 30 30 28 28
46 43 40 46 46 43 33 35 35 39 41 37 31 32 24 26 28 27 30 34 33 33 30 25 16 27 31 34 31 25 29 13 14 6 4 13 13 18 15 16 22 25 25 26 28
45 39 42 46 44 36 33 34 34 40 41 34 33 27 30 26 28 29 29 32 36 34 33 27 19 22 29 19 21 22 17 17 16 18 11 8 13 20 16 16 19 21 26 24 25
44 33 43 45 33 32 32 34 35 35 39 35 33 33 29 31 28 24 28 30 36 31 26 30 25 14 20 35 36 29 21 24 12 9 18 18 18 24 20 19 16 20 25 27 27
37 35 43 42 32 32 32 32 33 33 33 32 31 35 36 27 24 31 30 36 35 31 28 30 19 10 19 24 29 21 27 27 21 22 12 11 15 20 20 17 17 19 20 26 27
38 32 33 35 35 34 32 32 30 33 33 34 32 35 32 27 30 25 30 33 35 32 37 35 27 16 14 15 17 17 24 26 22 9 14 19 23 30 22 19 16 19 19 22 27
40 34 36 31 32 34 36 34 31 29 32 34 28 30 28 24 26 22 29 29 33 35 32 29 13 22 24 23 23 23 21 21 19 22 11 23 14 27 29 28 17 19 17 22 22
35 35 35 35 35 34 35 33 33 33 30 28 26 32 32 26 30 26 30 30 28 30 29 30 12 15 12 25 26 20 25 23 21 20 18 22 21 30 28 15 15 17 17 18 22
40 40 41 37 34 33 33 34 33 34 34 36 32 32 30 32 35 35 35 33 31 28 28 22 15 8 10 19 15 12 14 18 18 18 16 11 21 16 15 14 14 15 14 16 19
MSLP
1022.63 1022.43 1022.17 1021.79 1021.51 1021.28 1020.97 1020.71 1020.51 1020.28 1020.04 1019.85 1019.60 1019.43 1019.10 1018.75 1018.37 1017.97 1018.30 1019.32 1018.79 1018.10 1017.16 1016.02 1015.34 1015.37 1015.09 1015.31 1015.36 1015.17 1014.95 1014.19 1013.68 1013.46 1013.70 1014.06 1014.65 1014.76 1014.92 1015.06 1014.75 1014.44 1014.05 1013.85 1013.80
1022.82 1022.63 1022.40 1022.03 1021.70 1021.34 1021.08 1020.78 1020.52 1020.30 1020.11 1019.91 1019.69 1019.48 1019.27 1019.03 1018.39 1018.59 1019.71 1019.15 1018.72 1018.23 1017.07 1016.56 1016.09 1015.59 1015.54 1015.78 1016.03 1015.84 1015.59 1015.39 1015.31 1015.35 1015.40 1015.53 1015.69 1015.60 1015.67 1015.40 1014.87 1014.42 1013.79 1013.96 1014.13
1022.98 1022.76 1022.49 1022.20 1021.84 1021.43 1021.15 1020.82 1020.52 1020.31 1020.11 1019.89 1019.68 1019.49 1019.32 1019.08 1018.48 1019.35 1019.58 1019.25 1018.78 1017.99 1017.06 1016.64 1016.05 1015.94 1015.93 1016.23 1016.79 1016.66 1016.59 1016.47 1016.23 1016.45 1016.82 1016.67 1016.46 1016.29 1016.03 1015.26 1015.05 1014.96 1014.86 1014.82 1014.90
1023.14 1022.89 1022.65 1022.34 1021.90 1021.53 1021.19 1020.86 1020.49 1020.32 1020.10 1019.88 1019.69 1019.55 1019.33 1019.07 1019.70 1019.73 1019.62 1019.20 1018.68 1017.98 1017.20 1016.48 1015.99 1015.88 1016.43 1016.94 1017.47 1017.40 1017.09 1017.23 1017.09 1017.19 1017.41 1017.41 1017.16 1016.90 1016.33 1015.53 1015.20 1015.09 1015.20 1015.23 1015.52
1023.26 1023.03 1022.74 1022.43 1021.99 1021.59 1021.22 1020.83 1020.47 1020.24 1020.04 1019.87 1019.75 1019.59 1019.40 1019.15 1020.03 1019.82 1019.72 1019.33 1018.66 1018.10 1017.76 1017.35 1017.01 1016.86 1017.07 1017.66 1017.83 1017.91 1017.67 1017.68 1017.48 1017.49 1017.62 1017.38 1017.16 1016.86 1015.71 1015.47 1015.19 1015.23 1015.28 1015.42 1015.52
1023.34 1023.07 1022.83 1022.53 1022.11 1021.67 1021.26 1020.82 1020.52 1020.35 1020.20 1020.01 1019.76 1019.54 1019.35 1019.49 1020.15 1019.88 1019.73 1019.55 1019.32 1018.75 1018.36 1018.18 1018.21 1018.00 1017.75 1018.06 1018.32 1018.43 1018.23 1017.78 1017.35 1017.53 1017.67 1017.57 1016.89 1016.93 1015.62 1015.09 1015.01 1015.13 1015.18 1015.28 1015.53
1023.36 1023.10 1022.83 1022.56 1022.15 1021.76 1021.32 1020.99 1020.64 1020.44 1020.33 1020.07 1019.80 1019.37 1019.20 1020.32 1019.99 1020.08 1019.81 1019.78 1019.65 1019.26 1018.89 1019.08 1018.82 1018.24 1018.40 1018.43 1018.96 1018.64 1018.30 1017.39 1017.02 1017.44 1017.52 1017.59 1016.52 1015.95 1015.24 1014.96 1015.13 1015.03 1015.08 1015.31 1015.80
1023.26 1023.11 1022.89 1022.53 1022.09 1021.70 1021.22 1020.92 1020.72 1020.50 1020.31 1020.10 1019.85 1019.47 1019.89 1020.34 1020.29 1020.11 1019.95 1019.47 1019.60 1019.58 1019.64 1019.39 1018.94 1018.65 1018.72 1019.00 1019.04 1018.82 1018.63 1018.18 1017.25 1017.24 1017.68 1017.84 1016.91 1015.72 1015.17 1014.81 1015.03 1015.02 1015.22 1015.77 1016.29
1023.28 1023.13 1022.87 1022.47 1022.08 1021.65 1021.18 1020.77 1020.64 1020.45 1020.20 1019.98 1019.88 1019.70 1020.18 1020.45 1020.43 1020.31 1019.96 1019.88 1019.82 1019.74 1019.64 1019.15 1018.81 1018.89 1018.74 1019.25 1019.30 1019.66 1019.78 1019.03 1017.93 1017.36 1017.47 1017.52 1016.45 1015.56 1015.22 1014.74 1014.86 1015.27 1015.77 1016.32 1016.50
1023.24 1023.04 1022.84 1022.42 1021.99 1021.56 1021.10 1020.80 1020.42 1020.31 1020.05 1019.68 1019.72 1020.32 1020.36 1020.73 1020.72 1020.54 1020.08 1020.22 1020.06 1019.78 1019.66 1019.30 1018.96 1018.97 1019.21 1019.85 1020.42 1020.58 1020.40 1019.60 1019.04 1018.04 1017.68 1016.98 1016.23 1015.18 1014.92 1015.18 1015.39 1015.86 1016.36 1016.57 1016.61
1023.16 1023.01 1022.90 1022.53 1022.03 1021.48 1020.85 1020.59 1020.95 1020.98 1020.48 1020.86 1020.96 1020.84 1020.92 1021.20 1020.92 1020.29 1020.22 1020.35 1020.06 1019.87 1020.08 1020.14 1019.96 1019.73 1020.01 1020.59 1020.98 1021.19 1020.94 1020.41 1019.53 1018.63 1018.24 1017.23 1016.35 1015.25 1014.85 1015.41 1015.80 1016.28 1016.63 1016.85 1016.81
1022.98 1022.95 1022.77 1022.58 1022.28 1021.60 1021.08 1021.96 1023.67 1024.35 1022.51 1021.36 1021.28 1021.19 1021.37 1021.61 1021.08 1020.45 1020.43 1020.45 1020.96 1021.20 1020.90 1020.86 1020.40 1020.24 1020.53 1020.78 1021.22 1021.34 1021.08 1020.38 1019.51 1019.10 1019.24 1017.51 1016.24 1015.20 1014.88 1015.36 1015.91 1016.57 1016.99 1016.98 1016.82
1022.84 1022.91 1022.86 1022.64 1022.21 1022.13 1022.50 1023.64 1023.97 1023.84 1023.33 1021.65 1021.50 1021.43 1021.72 1021.79 1021.16 1020.97 1021.10 1021.00 1021.62 1022.11 1021.92 1021.43 1020.88 1020.76 1021.01 1021.00 1021.39 1021.41 1021.03 1020.75 1020.71 1019.65 1018.75 1018.46 1016.62 1015.17 1015.06 1015.54 1016.16 1016.62 1016.93 1017.02 1016.87
1022.51 1022.78 1022.90 1022.42 1022.37 1022.60 1023.26 1023.81 1023.71 1023.71 1023.44 1022.17 1021.77 1021.89 1021.86 1021.70 1021.42 1021.10 1021.21 1021.60 1021.67 1022.55 1022.37 1021.96 1021.27 1021.32 1021.47 1021.25 1021.50 1021.70 1021.05 1021.03 1021.20 1021.52 1021.02 1019.79 1018.78 1016.54 1015.76 1016.03 1016.26 1016.67 1016.94 1017.04 1017.12
1022.28 1022.65 1022.88 1022.50 1022.84 1023.15 1024.23 1023.78 1023.51 1023.67 1023.45 1022.52 1022.03 1022.06 1021.80 1021.91 1021.51 1021.31 1021.54 1021.40 1021.50 1022.49 1022.81 1022.12 1021.64 1021.51 1021.91 1021.30 1021.61 1021.68 1021.58 1021.33 1021.64 1022.51 1022.49 1020.82 1020.31 1016.96 1016.32 1016.39 1016.74 1017.15 1017.34 1017.36 1017.43
1022.25 1022.82 1022.97 1023.04 1023.37 1024.22 1024.06 1023.90 1023.54 1023.83 1022.87 1022.16 1021.88 1021.92 1021.99 1021.71 1021.26 1021.09 1021.25 1021.57 1021.66 1021.87 1022.42 1022.46 1022.41 1022.21 1021.88 1021.60 1021.57 1022.04 1021.80 1021.48 1021.92 1023.31 1023.39 1022.09 1021.48 1018.20 1017.34 1017.42 1017.51 1017.73 1017.88 1017.54 1017.40
1022.45 1023.02 1023.30 1023.56 1024.33 1024.31 1024.10 1023.87 1024.07 1023.43 1022.68 1022.54 1022.16 1022.12 1022.37 1022.17 1021.68 1021.70 1021.41 1021.41 1022.08 1022.31 1022.79 1022.56 1022.59 1022.37 1022.50 1022.05 1021.98 1022.49 1023.20 1023.81 1023.86 1024.02 1023.32 1022.49 1021.74 1018.63 1017.92 1018.10 1018.46 1018.30 1017.99 1017.88 1017.80
1022.72 1023.17 1024.28 1024.52 1024.67 1024.50 1024.20 1024.05 1023.91 1022.70 1022.36 1022.33 1022.38 1022.23 1022.54 1022.64 1022.44 1022.38 1021.92 1021.99 1022.32 1022.75 1023.48 1023.81 1023.23 1023.09 1022.90 1022.81 1023.03 1023.88 1024.98 1025.98 1026.36 1025.26 1024.30 1022.81 1021.66 1018.65 1018.18 1018.72 1019.12 1019.23 1018.91 1018.74 1018.51
1022.80 1023.81 1024.37 1024.97 1024.83 1024.79 1024.42 1024.19 1023.19 1022.86 1022.45 1022.48 1022.24 1022.56 1022.88 1023.05 1023.35 1022.98 1022.54 1022.43 1022.67 1023.34 1024.16 1024.43 1023.88 1023.45 1023.48 1023.35 1023.69 1024.79 1025.57 1026.03 1026.74 1025.93 1025.50 1022.88 1020.35 1019.22 1019.13 1019.51 1019.59 1019.67 1019.54 1019.31 1018.86
1023.03 1023.90 1024.75 1024.97 1025.00 1024.99 1024.60 1023.68 1023.29 1022.93 1022.66 1022.76 1023.07 1023.13 1023.35 1023.59 1023.64 1023.35 1022.95 1022.72 1023.34 1023.90 1024.38 1025.12 1025.20 1024.02 1024.03 1023.89 1024.41 1025.12 1025.94 1026.55 1027.10 1026.84 1025.29 1022.48 1021.38 1020.14 1020.13 1020.51 1020.65 1020.35 1020.02 1019.57 1018.98
1022.94 1023.93 1024.97 1025.05 1025.03 1025.09 1024.48 1023.86 1023.49 1023.27 1023.24 1023.42 1023.33 1023.47 1023.71 1023.92 1023.93 1023.80 1023.28 1023.30 1023.44 1024.18 1024.69 1025.23 1025.98 1024.88 1024.31 1024.03 1023.99 1025.46 1025.91 1026.49 1026.75 1026.59 1025.97 1023.99 1021.07 1019.50 1020.41 1020.97 1021.17 1020.74 1020.03 1019.61 1018.99
1023.03 1024.32 1025.12 1025.20 1025.41 1024.84 1024.47 1024.06 1024.11 1023.80 1023.87 1023.75 1023.75 1023.72 1024.03 1024.28 1024.35 1024.17 1023.55 1023.47 1023.84 1024.30 1024.90 1025.33 1025.75 1025.48 1023.84 1023.10 1023.43 1024.06 1024.81 1025.40 1026.27 1026.25 1025.69 1024.81 1020.92 1019.01 1020.08 1020.82 1020.80 1020.37 1019.88 1019.61 1019.13
1023.25 1024.54 1025.13 1025.13 1024.94 1024.54 1024.59 1024.29 1024.16 1024.17 1024.27 1024.26 1024.20 1024.15 1024.29 1024.81 1024.85 1023.96 1023.64 1023.77 1023.99 1024.51 1024.90 1025.40 1025.93 1025.67 1024.30 1024.23 1024.09 1024.47 1024.47 1024.98 1025.64 1025.86 1025.16 1024.94 1020.56 1019.32 1019.91 1020.53 1020.30 1020.22 1019.95 1019.59 1019.13
1023.22 1024.41 1025.02 1025.08 1024.55 1024.13 1024.15 1024.01 1024.12 1024.36 1024.27 1024.35 1024.41 1024.41 1024.85 1024.97 1024.84 1024.37 1023.88 1024.04 1024.28 1024.63 1025.16 1025.61 1025.89 1025.97 1025.44 1025.08 1024.86 1024.64 1024.12 1024.49 1025.26 1025.59 1024.14 1022.35 1020.41 1018.65 1019.83 1019.93 1020.10 1020.15 1019.84 1019.61 1019.20
1022.47 1023.02 1023.15 1024.14 1023.91 1023.59 1023.45 1023.41 1023.68 1024.19 1024.47 1024.35 1024.49 1024.38 1024.54 1024.88 1024.59 1024.51 1024.14 1024.26 1024.49 1024.86 1025.49 1025.95 1026.48 1026.32 1025.70 1025.12 1024.79 1024.20 1023.73 1024.09 1024.44 1023.63 1023.97 1020.35 1020.92 1018.63 1019.39 1019.92 1019.98 1020.03 1020.05 1019.83 1019.23
1022.13 1022.40 1023.07 1023.05 1023.01 1023.00 1022.95 1022.87 1022.94 1023.11 1023.72 1023.94 1024.01 1023.59 1024.24 1024.24 1023.57 1023.63 1023.79 1023.96 1024.20 1025.09 1025.73 1026.16 1026.76 1027.04 1026.19 1024.85 1024.51 1023.64 1021.98 1022.21 1022.72 1023.15 1022.71 1021.41 1020.39 1019.02 1018.75 1019.45 1019.96 1020.29 1020.58 1020.20 1019.47
1021.63 1021.55 1021.70 1022.02 1022.51 1022.50 1021.95 1021.61 1021.72 1022.37 1022.39 1022.62 1022.97 1023.27 1023.53 1023.32 1023.35 1023.33 1023.68 1023.97 1024.29 1024.80 1025.54 1026.52 1027.33 1027.84 1026.84 1025.54 1024.44 1022.22 1019.50 1020.10 1020.52 1020.52 1020.52 1020.49 1018.82 1018.62 1019.24 1019.83 1019.66 1020.19 1020.48 1020.22 1019.67
Wind_Speed
12 12 13 13 13 12 12 12 12 12 11 10 10 10 12 14 13 16 12 11 13 18 20 13 6 5 5 3 5 3 2 4 7 7 4 9 9 6 7 7 8 8 7 8 10
12 12 12 13 13 13 13 12 12 11 11 10 9 10 9 10 7 16 11 15 16 17 11 9 9 8 3 2 3 3 2 7 5 7 7 9 8 8 6 11 12 11 7 7 11
13 13 13 13 13 14 14 13 12 11 11 11 10 9 8 6 3 8 16 16 16 15 10 5 2 4 4 3 4 6 3 6 6 8 8 8 10 8 9 8 10 10 11 12 8
12 12 12 13 14 14 14 14 12 10 10 10 9 9 7 6 2 8 15 14 15 11 11 6 3 1 3 4 4 4 3 3 5 6 4 7 10 10 15 16 10 9 10 8 7
12 12 13 14 14 15 15 14 11 8 8 9 9 7 5 3 5 8 13 11 9 10 11 8 9 5 4 2 2 3 6 6 6 6 7 7 10 11 18 13 8 7 6 7 7
10 12 13 15 15 15 16 13 10 7 7 8 10 9 5 3 4 9 8 9 10 10 9 10 5 3 3 3 4 4 7 12 5 4 6 8 15 7 6 8 7 7 8 8 10
10 11 13 14 15 16 15 11 8 6 6 8 10 5 8 5 2 6 10 3 5 8 7 7 6 3 3 1 3 5 5 10 6 4 3 5 10 7 10 4 7 8 9 7 9
9 10 12 14 15 16 15 9 6 6 6 7 8 6 4 2 6 7 8 2 5 5 3 3 4 1 3 0 4 4 0 6 2 6 5 3 10 12 3 5 9 9 6 7 6
8 9 12 14 16 18 15 6 4 6 5 7 4 3 4 2 2 6 6 6 6 2 3 2 4 3 3 5 2 4 3 7 7 6 4 2 12 9 15 12 7 5 6 4 6
8 9 12 14 16 17 17 6 3 7 6 3 2 2 2 4 5 6 5 4 3 5 3 2 2 0 4 5 1 5 5 5 11 7 14 11 18 18 11 4 4 5 3 5 7
7 8 11 14 16 16 10 3 3 1 7 3 2 2 3 8 1 1 4 5 3 2 3 3 1 2 5 4 3 6 8 10 13 12 9 10 20 21 5 4 4 4 6 7 8
6 6 9 12 13 14 5 5 4 3 6 3 0 2 0 3 4 3 9 0 5 2 4 2 1 6 2 4 6 7 9 8 11 11 13 13 19 18 11 5 3 3 7 8 13
6 4 7 10 8 2 8 5 3 3 4 3 2 1 2 4 3 4 8 1 4 3 2 0 4 2 0 3 5 7 5 5 12 16 9 7 9 5 5 5 4 4 6 10 14
6 1 5 9 2 2 4 3 2 3 4 3 2 2 1 2 3 2 3 3 3 2 3 3 4 1 4 3 4 4 8 12 13 5 4 6 6 7 9 7 7 4 9 14 13
8 5 4 8 3 3 2 4 1 2 5 1 2 2 1 3 4 3 1 4 3 1 2 1 3 2 1 2 3 9 12 16 7 2 5 1 1 5 7 4 6 9 16 13 14
9 8 2 2 3 2 2 3 2 5 7 1 2 1 3 3 2 2 3 3 1 1 5 4 1 2 4 7 3 9 7 10 3 3 3 2 4 7 3 2 8 13 15 15 17
11 8 4 3 1 1 2 1 4 4 2 3 2 1 2 3 1 3 2 1 3 4 1 2 1 2 2 4 4 8 7 6 6 2 6 5 3 11 4 4 9 16 18 16 17
16 8 7 4 2 2 0 5 4 2 3 1 2 4 2 4 2 4 3 2 3 1 2 2 7 3 1 2 1 3 2 3 5 5 8 6 7 8 6 6 8 10 12 15 16
13 2 3 3 3 3 3 2 4 3 1 4 2 2 1 1 1 3 2 3 4 2 3 1 5 3 1 2 4 2 1 2 2 2 2 6 8 4 3 5 9 13 12 14 15
4 3 2 2 3 0 3 4 4 2 1 1 2 1 3 0 2 2 3 1 4 2 3 3 5 1 1 2 5 2 1 3 1 5 7 7 8 7 6 7 8 9 9 12 13
3 2 2 2 0 3 4 4 2 1 1 1 1 2 4 2 1 1 2 2 4 5 3 3 4 4 3 5 7 2 2 2 1 2 3 6 8 7 7 5 8 8 8 10 12
2 0 1 1 2 1 2 2 1 2 1 2 1 2 3 1 3 4 3 1 3 5 3 3 0 5 8 6 5 1 3 4 5 6 5 3 13 5 8 7 5 6 7 9 10
3 2 0 2 3 3 1 1 2 3 3 3 2 2 4 2 4 6 3 4 5 5 2 5 2 4 5 5 2 3 5 4 0 2 7 2 11 3 4 5 4 2 5 7 9
3 2 1 1 1 1 4 3 2 2 3 3 3 1 2 4 5 4 3 3 5 3 1 1 3 7 7 6 3 5 5 7 8 3 5 14 22 24 8 7 6 7 5 6 7
2 4 3 4 5 5 3 4 4 4 4 6 3 8 7 4 3 5 5 4 5 6 4 3 5 3 9 11 11 14 16 11 13 17 6 21 7 25 17 15 6 5 4 8 8
4 4 1 3 2 8 8 6 10 5 8 6 6 8 10 6 7 4 4 5 6 6 6 4 4 1 7 8 6 12 17 15 17 13 15 23 29 20 13 1 5 6 4 8 8
2 2 2 5 3 5 7 7 10 8 8 2 8 6 8 12 7 3 2 2 1 8 8 5 3 1 7 3 7 9 10 9 6 9 8 8 14 3 4 5 6 5 2 6 7
Wind_Direction
8 3 360 360 358 355 355 358 356 351 351 347 344 337 325 327 309 41 38 348 339 338 315 338 27 359 6 53 12 304 293 268 346 22 8 28 2 351 358 284 270 253 257 275 316
4 358 354 355 354 353 349 350 350 347 345 340 336 328 324 320 295 48 0 350 345 332 339 350 6 325 73 42 26 344 279 31 1 5 348 343 330 328 321 303 293 297 333 348 7
1 1 360 356 352 349 345 346 345 345 343 341 337 329 321 295 258 25 359 347 342 333 327 264 253 304 85 33 18 5 329 11 16 26 353 320 308 316 316 274 284 335 331 334 352
356 357 355 353 350 348 344 339 338 338 345 347 346 333 325 265 39 17 355 347 327 327 351 348 318 92 55 18 23 329 60 349 334 347 328 310 308 293 275 273 290 326 323 324 340
355 351 350 348 348 346 344 343 341 342 349 354 351 331 298 114 47 356 355 346 349 343 17 2 33 339 93 335 333 288 7 321 291 267 289 292 283 279 288 282 292 332 308 287 290
350 352 349 347 345 345 345 347 349 349 346 344 339 335 250 74 318 2 353 359 5 351 36 25 26 352 68 55 310 336 298 282 251 255 279 308 300 321 274 304 299 288 317 318 319
343 349 348 346 346 343 340 337 348 346 334 341 333 319 49 78 355 345 350 1 354 9 19 22 334 6 336 12 7 298 297 285 197 177 276 11 284 191 239 285 263 269 286 329 22
336 342 345 346 347 341 335 324 331 318 321 326 322 291 66 63 338 3 356 353 16 11 334 344 328 356 27 213 208 278 151 356 143 188 153 127 278 299 318 295 282 294 329 36 351
326 334 345 349 346 345 334 305 299 310 307 296 277 312 82 131 312 346 360 351 314 256 298 297 290 18 188 321 256 60 267 297 316 218 243 202 274 262 295 284 318 332 35 337 284
322 333 344 350 346 339 331 282 276 290 241 238 257 259 75 353 336 322 12 317 310 279 219 252 276 332 39 14 14 306 310 315 302 305 300 290 271 280 308 6 341 37 250 287 319
303 327 343 346 346 338 336 272 337 182 52 57 24 296 22 339 140 296 347 291 267 243 0 49 353 55 47 36 327 298 292 288 287 305 308 278 291 288 256 158 184 221 343 323 308
287 316 344 341 341 334 330 55 63 303 312 146 137 243 11 335 285 57 328 347 70 58 347 26 174 68 13 275 283 293 285 282 282 324 321 293 290 278 260 187 131 340 299 321 323
267 314 337 329 316 353 76 60 348 302 259 134 79 348 9 338 337 351 344 199 99 54 62 143 58 74 268 317 313 288 259 321 302 333 273 297 284 157 155 148 196 240 313 327 327
235 237 340 322 331 330 60 19 352 331 32 225 157 104 221 283 240 47 3 319 153 105 1 277 92 2 333 280 62 286 2 325 314 31 302 52 281 308 134 191 186 315 328 326 335
194 146 55 29 340 67 19 319 345 223 334 53 94 70 231 282 319 143 31 241 321 137 90 34 346 352 241 256 39 247 321 291 289 91 346 191 76 256 148 210 349 334 329 326 337
157 143 116 108 80 57 313 294 237 30 255 355 333 284 344 251 155 295 216 219 347 247 170 245 86 254 316 313 275 317 304 307 95 151 257 198 82 268 224 296 326 335 325 337 338
134 107 64 13 74 331 296 296 26 194 86 313 307 336 190 292 27 352 324 202 350 28 29 227 193 122 270 302 114 20 1 334 349 259 239 219 305 249 151 33 2 333 329 341 338
123 90 52 59 5 319 310 55 227 276 254 81 279 245 313 1 87 318 270 231 121 64 295 32 322 178 249 59 119 39 69 131 277 309 298 228 239 261 141 50 3 325 330 335 331
117 82 74 18 350 282 83 191 242 212 311 335 226 295 202 153 336 342 271 334 60 98 159 334 264 122 359 35 109 131 250 29 269 238 311 239 277 58 92 349 346 337 337 328 328
103 104 78 336 335 332 94 227 219 239 355 234 245 48 312 10 304 56 218 53 123 106 134 100 306 72 158 147 72 141 115 17 290 306 296 291 285 245 306 317 315 319 327 328 324
96 104 81 346 325 58 230 221 213 189 313 221 306 275 245 267 243 245 253 129 102 136 92 125 120 269 134 196 168 140 234 248 126 200 273 304 264 200 199 232 272 293 328 330 326
142 163 54 295 89 110 223 183 356 175 167 202 273 284 201 116 275 256 261 200 125 145 179 153 243 264 229 114 39 100 232 161 134 271 237 252 267 165 183 211 224 280 335 323 322
111 91 351 292 207 194 174 232 204 189 215 171 202 248 51 217 253 210 204 102 180 184 192 174 234 323 335 6 87 214 206 198 60 24 224 224 264 222 238 248 227 334 305 313 320
122 167 26 21 296 240 170 209 218 278 224 175 194 111 157 229 229 292 246 146 184 170 166 269 255 195 207 209 117 258 207 208 178 198 254 237 277 280 269 321 314 320 299 318 311
156 221 176 181 227 202 183 168 179 229 250 174 202 213 169 238 194 230 228 139 182 201 212 209 232 261 262 269 266 262 262 228 224 225 207 270 264 279 296 301 269 254 313 324 322
160 148 151 185 265 187 198 210 226 198 161 222 218 187 202 223 207 192 195 187 191 170 185 189 263 91 281 250 259 272 256 234 229 240 259 262 275 282 279 15 310 272 34 314 316
142 32 158 164 176 183 197 211 208 155 212 289 198 177 210 237 250 272 287 342 260 170 189 154 205 73 267 340 309 304 242 178 200 187 167 192 234 210 288 261 258 267 93 287 311